[[{"header":{"parameterUnit":"m.s-1","parameterCategory":2,"la1":30.2991,"la2":30.254,"lo1":-89.0895,"lo2":-89.0444,"dy":0.0017,"dx":0.0017,"nx":28,"ny":28,"refTime":"2023-06-19T21:00:00:Z","depth":"0","parameterNumber":2,"parameterNumberName":"U-component_of_CURRENTS"},"data":[0,0,0,0,0,0,0,0,0,0,0,0,0,0,0,0,0,0,0,0,0,0,0,0,0,0,0,0,0,0,0,0,0,0,0,0,0,0,0,0,0,0,0,0,0,0,0,0,0,0,0,0,0,0,0,0,0,0,0.2867,0.2869,0,0.2945,0.2946,0.2946,0.2886,0.2884,0.2882,0.288,0.2846,0.2847,0.2848,0,0,0,0,0,0,0,0,0,0,0,0,0,0.2607,0.2612,0.2867,0.2869,0.287,0.2945,0.2946,0.2946,0.2887,0.2884,0.2882,0.2879,0.2845,0.2846,0.2848,0,0,0,0,0,0,0,0,0,0,0,0,0,0.27,0.2613,0.2867,0.2854,0.2854,0.2945,0.2946,0.2946,0.2887,0.2884,0.2881,0.2878,0.2845,0.2846,0.2848,0.2916,0,0,0.2852,0.2853,0,0,0,0,0,0,0,0,0.2695,0.2709,0.2855,0.2855,0.2856,0.2909,0.2842,0.2933,0.2888,0.2868,0.288,0.2877,0.2863,0.2863,0.2876,0.2914,0.2913,0.2852,0.2853,0.2854,0.2854,0,0,0,0,0,0,0,0.2688,0.2705,0.2891,0.2857,0.2858,0.2825,0.2835,0.2858,0.2874,0.2869,0.2867,0.2887,0.2861,0.2875,0.2875,0.2912,0.2852,0.2853,0.2854,0.2855,0.3004,0.3007,0,0,0,0,0,0,0.27,0.27,0.2889,0.2894,0.2774,0.2833,0.2843,0.2889,0.2876,0.2874,0.2889,0.2884,0.2874,0.2873,0.2873,0.2973,0.2854,0.2855,0.2856,0.3001,0.3004,0.3008,0,0,0,0,0,0,0.2694,0.2717,0.2886,0.2801,0.2821,0.2842,0.2893,0.2893,0.2897,0.2894,0.2887,0.2893,0.2872,0.2871,0.2886,0.2969,0.2856,0.2857,0.2997,0.3002,0.3006,0.3159,0,0,0,0,0,0,0.2687,0.2715,0.2754,0.2804,0.2827,0.2945,0.2897,0.2897,0.2918,0.2911,0.2896,0.289,0.2869,0.2884,0.2887,0.2969,0.2858,0.2993,0.2999,0.3004,0.315,0.3168,0.3184,0,0,0,0,0,0.2678,0.2753,0.2756,0.2779,0.288,0.2948,0.2956,0.2953,0.2921,0.2941,0.2918,0.289,0.2924,0.2887,0.289,0.2975,0.299,0.2997,0.3004,0.3142,0.3165,0.3184,0,0,0,0,0,0,0.2675,0.2757,0.276,0.286,0.2899,0.294,0.2975,0.2963,0.2965,0.2954,0.2919,0.2914,0.2971,0.2945,0.2905,0.3035,0.2959,0.2967,0.3063,0.3084,0.3101,0.3144,0.2859,0,0,0,0,0,0.2695,0.2762,0.2822,0.29,0.2926,0.2947,0.2973,0.2974,0.2987,0.2984,0.2965,0.2966,0.3011,0.3017,0.3038,0.3098,0.3141,0.3158,0.3175,0.319,0.3228,0.3392,0.3429,0.3031,0.3031,0.303,0,0,0.2717,0.2772,0.281,0.2902,0.2933,0.2986,0.2954,0.301,0.3045,0.2984,0.3011,0.3025,0.304,0.3114,0.3138,0.3095,0.3318,0.3199,0.3211,0.3242,0.3404,0.3443,0.3478,0.3035,0.3035,0.3034,0,0,0.2793,0.2844,0.2916,0.2962,0.3025,0.3029,0.3044,0.308,0.3087,0.3121,0.3112,0.3179,0.3181,0.3251,0.3279,0.3407,0.3408,0.3398,0.3518,0.3677,0.3713,0.3744,0.3821,0.3858,0.3401,0.3401,0.3402,0,0.2812,0.2917,0.2945,0.3026,0.3064,0.3047,0.3113,0.3137,0.3162,0.3206,0.3137,0.3264,0.327,0.3434,0.3476,0.3456,0.3506,0.3437,0.3704,0.3737,0.3767,0.3837,0.3877,0.3409,0.3409,0.3408,0.3407,0,0.2943,0.3015,0.3066,0.3143,0.3182,0.3245,0.3273,0.3305,0.3285,0.3318,0.3443,0.3468,0.3554,0.3577,0.3561,0.3791,0.3743,0.3714,0.3659,0.3817,0.3879,0.3918,0.3421,0.3418,0.3416,0.3414,0,0,0.3011,0.3127,0.3145,0.3182,0.3249,0.3289,0.3365,0.3446,0.3515,0.3547,0.3668,0.3777,0.3804,0.3842,0.3861,0.3991,0.4234,0.3943,0.3948,0.4029,0.4542,0.4471,0.4504,0.4254,0.4262,0.4269,0.4491,0,0.3093,0.323,0.3269,0.3363,0.3421,0.3444,0.3513,0.3588,0.3625,0.3729,0.3831,0.3934,0.39,0.3956,0.4102,0.4199,0.4346,0.4173,0.4368,0.4373,0.4302,0.4552,0.4483,0.4674,0.4528,0.4534,0.4539,0,0.3213,0.3274,0.3383,0.3465,0.3496,0.354,0.3644,0.3713,0.3871,0.3918,0.4066,0.4113,0.4331,0.4256,0.4557,0.4442,0.4531,0.4589,0.4598,0.4515,0.4377,0.4498,0.4749,0.4638,0.4597,0.4592,0.4588,0,0.3231,0.3355,0.3422,0.3461,0.3552,0.3607,0.365,0.3782,0.3847,0.4054,0.4117,0.4358,0.4456,0.4648,0.4746,0.4686,0.5038,0.4964,0.4989,0.4979,0.4955,0.493,0.5139,0.5232,0.5232,0.5231,0.5231,0,0.3312,0.3369,0.3432,0.3477,0.3558,0.3625,0.3726,0.3824,0.396,0.4062,0.4216,0.433,0.4565,0.4746,0.4852,0.504,0.5139,0.5089,0.5085,0.4996,0.4974,0.4895,0.4764,0.5239,0.5238,0.5236,0.5235,0,0.3347,0.3387,0.3466,0.3549,0.357,0.3635,0.3718,0.3795,0.3928,0.4069,0.4136,0.4363,0.4641,0.4836,0.514,0.515,0.5211,0.5374,0.5207,0.5182,0.5072,0.4949,0.4891,0.4763,0.5478,0.5479,0.5479,0,0.3395,0.3437,0.35,0.3516,0.355,0.3623,0.3667,0.3779,0.3841,0.4064,0.4129,0.4431,0.4619,0.5014,0.5217,0.5465,0.5265,0.5431,0.5333,0.5138,0.5001,0.4693,0.4566,0.5346,0.5345,0.5344,0.5344,0,0.3469,0.3473,0.3511,0.3535,0.3562,0.3595,0.3657,0.3683,0.3821,0.3933,0.4102,0.4273,0.4705,0.4958,0.5268,0.5391,0.5171,0.542,0.5325,0.5036,0.4616,0.4463,0.5047,0.5338,0.5338,0.5339,0.5339,0.5339,0.3504,0.3526,0.3537,0.3551,0.3561,0.3546,0.3538,0.3599,0.3671,0.3792,0.3997,0.4202,0.4608,0.5092,0.518,0.5296,0.5168,0.5228,0.5132,0.4864,0.4644,0.5167,0.5369,0.537,0.5371,0.5371,0.5372,0,0.3544,0.3536,0.3547,0.3524,0.3483,0.3503,0.3504,0.3465,0.3495,0.3674,0.3812,0.4168,0.4479,0.4793,0.5098,0.5018,0.4793,0.4927,0.4543,0.4463,0.5099,0.5,0.5002,0.5002,0.5002,0.5002,0.5002,0.5002,0.3556,0.3546,0.3522,0.3434,0.3398,0.3305,0.3271,0.3243,0.3314,0.3425,0.359,0.3801,0.4236,0.4641,0.4761,0.47,0.4358,0.4226,0.4117,0.4642,0.4662,0.4682,0.4568,0.4479,0.4478,0.3395,0.3387,0.3381]},{"header":{"parameterUnit":"m.s-1","parameterCategory":2,"la1":30.2991,"la2":30.254,"lo1":-89.0895,"lo2":-89.0444,"dy":0.0017,"dx":0.0017,"nx":28,"ny":28,"refTime":"2023-06-19T21:00:00:Z","depth":"0","parameterNumber":3,"parameterNumberName":"V-component_of_CURRENTS"},"data":[0,0,0,0,0,0,0,0,0,0,0,0,0,0,0,0,0,0,0,0,0,0,0,0,0,0,0,0,0,0,0,0,0,0,0,0,0,0,0,0,0,0,0,0,0,0,0,0,0,0,0,0,0,0,0,0,0,0,-0.0701,-0.0702,0,-0.0751,-0.0751,-0.0752,-0.0852,-0.0854,-0.0855,-0.0857,-0.0909,-0.0908,-0.0908,0,0,0,0,0,0,0,0,0,0,0,0,0,-0.0678,-0.0678,-0.0701,-0.0702,-0.0702,-0.0751,-0.0751,-0.0752,-0.0851,-0.0854,-0.0856,-0.0858,-0.0909,-0.0908,-0.0908,0,0,0,0,0,0,0,0,0,0,0,0,0,-0.0705,-0.0678,-0.0701,-0.0757,-0.0762,-0.075,-0.0751,-0.0752,-0.0851,-0.0854,-0.0857,-0.0859,-0.0909,-0.0908,-0.0908,-0.0849,0,0,-0.0906,-0.0906,0,0,0,0,0,0,0,0,-0.0704,-0.0706,-0.0748,-0.0753,-0.0759,-0.0797,-0.0762,-0.0784,-0.085,-0.0819,-0.0857,-0.086,-0.0868,-0.0871,-0.0876,-0.0851,-0.0853,-0.0906,-0.0906,-0.0905,-0.0905,0,0,0,0,0,0,0,-0.0702,-0.0704,-0.0722,-0.0748,-0.0755,-0.0774,-0.0781,-0.0767,-0.0828,-0.0822,-0.0829,-0.0831,-0.0872,-0.0877,-0.0878,-0.0854,-0.0906,-0.0906,-0.0905,-0.0905,-0.0687,-0.0682,0,0,0,0,0,0,-0.069,-0.0702,-0.0721,-0.0724,-0.0736,-0.0772,-0.078,-0.0783,-0.0829,-0.0838,-0.0828,-0.0835,-0.0876,-0.0879,-0.088,-0.0727,-0.0905,-0.0905,-0.0905,-0.0692,-0.0686,-0.068,0,0,0,0,0,0,-0.0689,-0.0691,-0.0719,-0.0713,-0.0718,-0.0769,-0.0772,-0.0782,-0.0784,-0.0834,-0.0844,-0.082,-0.0878,-0.0881,-0.085,-0.0733,-0.0905,-0.0904,-0.0699,-0.069,-0.0683,-0.0475,0,0,0,0,0,0,-0.0689,-0.0691,-0.0683,-0.0712,-0.0718,-0.0692,-0.0769,-0.0781,-0.0781,-0.0791,-0.0828,-0.0837,-0.0881,-0.085,-0.0849,-0.0736,-0.0904,-0.0706,-0.0695,-0.0685,-0.0489,-0.0461,-0.0437,0,0,0,0,0,-0.0687,-0.0648,-0.0682,-0.0684,-0.0707,-0.0689,-0.0692,-0.074,-0.0778,-0.0757,-0.0784,-0.0836,-0.0783,-0.0846,-0.0846,-0.073,-0.0711,-0.0698,-0.0686,-0.0501,-0.0466,-0.0437,0,0,0,0,0,0,-0.061,-0.0656,-0.0693,-0.0666,-0.0674,-0.0705,-0.0687,-0.0718,-0.0723,-0.0735,-0.079,-0.0797,-0.0719,-0.0748,-0.0817,-0.0631,-0.0743,-0.073,-0.0602,-0.057,-0.0545,-0.0489,-0.0903,0,0,0,0,0,-0.0594,-0.0587,-0.0627,-0.0595,-0.0605,-0.0643,-0.0642,-0.0671,-0.0683,-0.069,-0.0705,-0.0702,-0.0662,-0.0644,-0.0631,-0.0539,-0.0577,-0.0453,-0.0427,-0.0405,-0.0354,-0.0319,-0.0286,-0.0639,-0.0639,-0.0639,0,0,-0.0546,-0.0572,-0.0564,-0.058,-0.0597,-0.0552,-0.0649,-0.0631,-0.057,-0.0688,-0.0603,-0.0622,-0.0621,-0.0522,-0.0484,-0.0535,-0.0328,-0.0389,-0.0371,-0.0331,-0.0303,-0.0269,-0.0239,-0.0631,-0.0632,-0.0634,0,0,-0.0433,-0.0481,-0.0439,-0.0446,-0.0466,-0.0475,-0.0462,-0.0479,-0.0475,-0.0411,-0.0456,-0.0396,-0.0367,-0.0314,-0.029,-0.0101,-0.0202,-0.0099,0.009,0.0123,0.0152,0.0177,0.0142,0.0162,-0.0074,-0.0074,-0.0073,0,-0.0371,-0.0333,-0.0413,-0.0374,-0.0351,-0.0426,-0.0349,-0.0336,-0.0328,-0.0277,-0.0357,-0.0227,-0.0244,-0.0068,-0.0005,-0.0035,-0.0077,-0.004,0.0155,0.0179,0.0201,0.0159,0.0179,-0.0062,-0.0064,-0.0065,-0.0066,0,-0.0236,-0.0205,-0.0172,-0.0148,-0.0132,-0.0077,-0.0086,-0.0037,-0.0045,-0.0023,0.0109,0.0088,0.0173,0.0194,0.0147,0.0337,0.0233,0.0166,0.0066,0.0249,0.0193,0.021,-0.0046,-0.005,-0.0053,-0.0056,0,0,-0.0078,-0.0076,-0.0058,-0.0029,-0.0014,0.0018,0.0138,0.0238,0.0339,0.0355,0.0506,0.0587,0.0556,0.0587,0.0551,0.0595,0.0693,0.046,0.0456,0.041,0.071,0.0609,0.0614,0.0636,0.0641,0.0645,0.0596,0,0.0068,0.0169,0.0151,0.0291,0.0335,0.032,0.0443,0.0514,0.0559,0.0683,0.071,0.081,0.0712,0.0744,0.0793,0.0716,0.0752,0.071,0.0556,0.0552,0.0428,0.0638,0.0607,0.056,0.0611,0.0613,0.0615,0,0.0212,0.0256,0.0386,0.0474,0.05,0.0586,0.0742,0.0838,0.0982,0.1014,0.1122,0.1102,0.1219,0.1068,0.1076,0.1037,0.0919,0.0835,0.0829,0.0686,0.0486,0.0396,0.0586,0.032,0.0639,0.0637,0.0635,0,0.0312,0.0432,0.0538,0.0561,0.0651,0.0739,0.0818,0.0951,0.1044,0.1218,0.1285,0.1394,0.1416,0.1352,0.1168,0.1127,0.1106,0.1015,0.082,0.0805,0.0734,0.0707,0.0648,0.1038,0.1038,0.1038,0.1038,0,0.045,0.0536,0.0587,0.0631,0.0795,0.0822,0.1013,0.1107,0.1254,0.1389,0.1445,0.1545,0.148,0.1436,0.1271,0.1098,0.1181,0.0916,0.0832,0.08,0.0781,0.0504,0.0352,0.1036,0.1036,0.1037,0.1037,0,0.0515,0.0553,0.0662,0.0775,0.082,0.0923,0.1074,0.1202,0.133,0.1503,0.1554,0.1662,0.1647,0.1523,0.14,0.1205,0.0904,0.095,0.0885,0.0798,0.0396,0.0258,0.0162,0.0051,0.0791,0.0789,0.0787,0,0.0548,0.0603,0.0728,0.0791,0.0841,0.0983,0.1083,0.1225,0.1338,0.1556,0.1635,0.1708,0.1776,0.1572,0.1305,0.1058,0.0832,0.0782,0.0746,0.0436,0.0219,0.0145,0.0054,0.0705,0.0702,0.0701,0.0699,0,0.0603,0.0639,0.0719,0.0831,0.0932,0.1067,0.1207,0.1303,0.1474,0.1626,0.1793,0.1879,0.1753,0.1574,0.1233,0.1012,0.0603,0.0733,0.047,0.0234,0.0101,-0.0071,0.0606,0.0682,0.0684,0.0685,0.0686,0.0687,0.0634,0.069,0.0769,0.0882,0.0996,0.1128,0.1252,0.1397,0.1582,0.1833,0.1877,0.206,0.1749,0.1359,0.1029,0.04,0.0466,0.0203,0.0081,0.005,-0.0085,0.0529,0.0469,0.0469,0.047,0.047,0.047,0,0.0657,0.0709,0.081,0.0946,0.1062,0.1123,0.132,0.1464,0.1676,0.1917,0.2088,0.2049,0.1595,0.1131,0.0341,-0.0155,-0.0312,-0.0432,-0.0532,-0.0578,0.0018,-0.0017,-0.0252,-0.0252,-0.0252,-0.0252,-0.0251,-0.0251,0.0673,0.074,0.0783,0.0951,0.1062,0.124,0.136,0.1585,0.18,0.2122,0.2294,0.2402,0.2007,0.0521,-0.0539,-0.0799,-0.1109,-0.1178,-0.1331,-0.0959,-0.0909,-0.0861,-0.0927,-0.1349,-0.135,-0.1854,-0.1859,-0.1864]}],[{"header":{"parameterUnit":"m.s-1","parameterCategory":2,"la1":30.2991,"la2":30.254,"lo1":-89.0895,"lo2":-89.0444,"dy":0.0017,"dx":0.0017,"nx":28,"ny":28,"refTime":"2023-06-19T21:00:00:Z","depth":"2","parameterNumber":2,"parameterNumberName":"U-component_of_CURRENTS"},"data":[0,0,0,0,0,0,0,0,0,0,0,0,0,0,0,0,0,0,0,0,0,0,0,0,0,0,0,0,0,0,0,0,0,0,0,0,0,0,0,0,0,0,0,0,0,0,0,0,0,0,0,0,0,0,0,0,0,0,0.1266,0.1267,0,0.1432,0.1434,0.1436,0.1431,0.1428,0.1425,0.1423,0.1602,0.1609,0.1616,0,0,0,0,0,0,0,0,0,0,0,0,0,0.1177,0.1177,0.1266,0.1267,0.1269,0.1431,0.1434,0.1437,0.1432,0.1428,0.1425,0.1421,0.1599,0.1608,0.1617,0,0,0,0,0,0,0,0,0,0,0,0,0,0.1271,0.1178,0.1265,0.1282,0.1284,0.1431,0.1434,0.1438,0.1432,0.1428,0.1424,0.142,0.1596,0.1607,0.1618,0.177,0,0,0.1652,0.1656,0,0,0,0,0,0,0,0,0.1265,0.1275,0.1278,0.1281,0.1284,0.1401,0.1468,0.1548,0.1433,0.1382,0.1423,0.1418,0.1535,0.1551,0.16,0.1779,0.1786,0.1653,0.1659,0.1664,0.1667,0,0,0,0,0,0,0,0.1259,0.1269,0.1337,0.128,0.1283,0.136,0.1367,0.1485,0.1485,0.1386,0.1385,0.1396,0.1537,0.1589,0.1604,0.1789,0.1652,0.1662,0.1669,0.1673,0.216,0.2166,0,0,0,0,0,0,0.122,0.1262,0.1332,0.1341,0.1258,0.1364,0.1372,0.1373,0.1483,0.1494,0.1399,0.1395,0.1572,0.1591,0.161,0.1849,0.1664,0.1674,0.1681,0.2153,0.2161,0.2168,0,0,0,0,0,0,0.1217,0.1224,0.1325,0.1302,0.1319,0.1367,0.137,0.1378,0.1463,0.1492,0.1503,0.1477,0.1569,0.1594,0.1783,0.1853,0.1679,0.1689,0.2146,0.2156,0.2164,0.2294,0,0,0,0,0,0,0.1214,0.1222,0.1264,0.1299,0.1318,0.1462,0.1373,0.1384,0.1471,0.1468,0.1564,0.1573,0.1568,0.1767,0.1794,0.1865,0.1698,0.2138,0.215,0.2161,0.2282,0.2306,0.2328,0,0,0,0,0,0.121,0.1288,0.1265,0.1276,0.1355,0.1467,0.149,0.1511,0.1479,0.1565,0.163,0.1572,0.1857,0.1784,0.1813,0.1888,0.2132,0.2147,0.2161,0.2271,0.2302,0.2327,0,0,0,0,0,0,0.1297,0.1295,0.127,0.1348,0.1416,0.1464,0.1561,0.1559,0.1682,0.1693,0.169,0.1711,0.1883,0.1906,0.1823,0.2067,0.1973,0.1994,0.2047,0.2076,0.2099,0.2063,0.1707,0,0,0,0,0,0.1325,0.1362,0.1388,0.1459,0.1502,0.1541,0.1603,0.1619,0.17,0.1749,0.1806,0.1882,0.1968,0.2037,0.2123,0.2301,0.2259,0.2362,0.2385,0.2404,0.2401,0.2446,0.2471,0.2214,0.2214,0.2214,0,0,0.1371,0.1382,0.1403,0.1479,0.1535,0.1638,0.1573,0.1698,0.177,0.1758,0.1925,0.1983,0.2038,0.2202,0.228,0.2231,0.2456,0.2422,0.2437,0.2423,0.2463,0.2487,0.2508,0.2224,0.2222,0.2221,0,0,0.1492,0.1505,0.1582,0.1653,0.1747,0.1773,0.1817,0.1907,0.1941,0.2109,0.2094,0.2216,0.2371,0.2415,0.2449,0.2676,0.2573,0.2698,0.2794,0.284,0.2859,0.2875,0.2828,0.284,0.2712,0.2712,0.2713,0,0.1556,0.1619,0.164,0.1751,0.1799,0.1834,0.1936,0.2016,0.2154,0.2185,0.2181,0.2404,0.2458,0.261,0.2672,0.2721,0.2694,0.2669,0.2862,0.2877,0.2892,0.284,0.285,0.272,0.2719,0.2718,0.2718,0,0.1712,0.179,0.1865,0.1963,0.2048,0.2157,0.2219,0.2316,0.2344,0.2388,0.2552,0.2656,0.2766,0.2809,0.2809,0.2954,0.2882,0.2873,0.2767,0.2924,0.2861,0.2869,0.2732,0.2729,0.2726,0.2724,0,0,0.1758,0.1924,0.1953,0.1975,0.2147,0.2192,0.2353,0.2445,0.2471,0.2657,0.2707,0.2917,0.2954,0.3,0.3039,0.3087,0.3164,0.3031,0.3029,0.2939,0.3197,0.3118,0.3117,0.3181,0.3185,0.3187,0.3099,0,0.1859,0.2008,0.21,0.2236,0.2287,0.2369,0.2466,0.2565,0.2631,0.2713,0.2844,0.2947,0.3034,0.3073,0.317,0.3142,0.3197,0.3183,0.3098,0.3093,0.2969,0.3131,0.2895,0.2797,0.3106,0.3108,0.3108,0,0.1945,0.2016,0.2139,0.2218,0.2254,0.2367,0.2422,0.2531,0.2678,0.2723,0.2909,0.2989,0.3163,0.3171,0.3298,0.3281,0.3273,0.3248,0.3244,0.3128,0.3033,0.2703,0.2799,0.3121,0.312,0.3119,0.3118,0,0.1799,0.2011,0.2056,0.211,0.2258,0.2317,0.241,0.2541,0.2587,0.2754,0.279,0.3022,0.31,0.3199,0.327,0.3266,0.3315,0.3291,0.3218,0.3207,0.2967,0.2931,0.3374,0.3374,0.3374,0.3374,0.3375,0,0.1763,0.1807,0.1995,0.2009,0.2054,0.2215,0.2278,0.2372,0.2531,0.2596,0.2814,0.2894,0.311,0.3198,0.3252,0.3278,0.3337,0.325,0.3212,0.3007,0.2978,0.3232,0.3217,0.3371,0.3372,0.3372,0.3373,0,0.1558,0.1696,0.174,0.1914,0.1973,0.2,0.2204,0.2248,0.2409,0.2501,0.2569,0.2793,0.2946,0.3116,0.3209,0.3214,0.3242,0.3232,0.2945,0.2878,0.3082,0.3076,0.3108,0.3105,0.3103,0.3101,0.3099,0,0.1433,0.1446,0.1614,0.166,0.1757,0.1866,0.1943,0.2153,0.2228,0.2436,0.2462,0.2669,0.278,0.2905,0.2984,0.3052,0.3211,0.2839,0.2831,0.3112,0.3071,0.3068,0.3065,0.2531,0.2525,0.252,0.2516,0,0.12,0.1287,0.1338,0.1455,0.1556,0.1643,0.1803,0.1845,0.2089,0.2171,0.2313,0.2411,0.2572,0.2588,0.2699,0.2711,0.2821,0.2736,0.3122,0.2662,0.257,0.2529,0.2544,0.2471,0.2475,0.2479,0.2481,0.2483,0.1022,0.1033,0.116,0.1268,0.1371,0.1475,0.155,0.1708,0.1815,0.2012,0.2114,0.22,0.2236,0.2314,0.2326,0.2391,0.2549,0.247,0.2484,0.2505,0.2481,0.2394,0.225,0.2253,0.2256,0.2259,0.2261,0,0.0823,0.0934,0.0993,0.1142,0.1226,0.1368,0.1495,0.1573,0.1704,0.1819,0.1957,0.1789,0.181,0.1956,0.1944,0.1938,0.1908,0.1933,0.1889,0.1933,0.1972,0.1923,0.1543,0.1541,0.154,0.1538,0,0,0.0739,0.0776,0.0865,0.1001,0.1153,0.1301,0.1399,0.1496,0.156,0.1564,0.1602,0.1736,0.1774,0.159,0.1602,0.1595,0.1746,0.1541,0.2104,0.2088,0.2125,0.2259,0.223,0,0,0,0,0]},{"header":{"parameterUnit":"m.s-1","parameterCategory":2,"la1":30.2991,"la2":30.254,"lo1":-89.0895,"lo2":-89.0444,"dy":0.0017,"dx":0.0017,"nx":28,"ny":28,"refTime":"2023-06-19T21:00:00:Z","depth":"2","parameterNumber":3,"parameterNumberName":"V-component_of_CURRENTS"},"data":[0,0,0,0,0,0,0,0,0,0,0,0,0,0,0,0,0,0,0,0,0,0,0,0,0,0,0,0,0,0,0,0,0,0,0,0,0,0,0,0,0,0,0,0,0,0,0,0,0,0,0,0,0,0,0,0,0,0,-0.0625,-0.0625,0,-0.0599,-0.0599,-0.0599,-0.0684,-0.0686,-0.0688,-0.069,-0.0788,-0.0788,-0.0789,0,0,0,0,0,0,0,0,0,0,0,0,0,-0.0652,-0.0652,-0.0625,-0.0624,-0.0624,-0.0599,-0.0599,-0.0599,-0.0684,-0.0686,-0.0689,-0.0691,-0.0787,-0.0788,-0.0789,0,0,0,0,0,0,0,0,0,0,0,0,0,-0.064,-0.0652,-0.0625,-0.0659,-0.0661,-0.0599,-0.0599,-0.0599,-0.0683,-0.0686,-0.0689,-0.0692,-0.0787,-0.0788,-0.0789,-0.0732,0,0,-0.0792,-0.0793,0,0,0,0,0,0,0,0,-0.064,-0.0639,-0.0655,-0.0656,-0.0659,-0.0643,-0.0643,-0.0648,-0.0682,-0.0681,-0.069,-0.0694,-0.0745,-0.0749,-0.0744,-0.0737,-0.0741,-0.0792,-0.0793,-0.0793,-0.0793,0,0,0,0,0,0,0,-0.0641,-0.064,-0.062,-0.0654,-0.0656,-0.0641,-0.0645,-0.0644,-0.0702,-0.0681,-0.0686,-0.0673,-0.0748,-0.0742,-0.0747,-0.0743,-0.0792,-0.0793,-0.0794,-0.0794,-0.0777,-0.0776,0,0,0,0,0,0,-0.0635,-0.0641,-0.0621,-0.0619,-0.0651,-0.0638,-0.0642,-0.0649,-0.0699,-0.0707,-0.067,-0.0677,-0.0739,-0.0745,-0.0751,-0.073,-0.0793,-0.0794,-0.0795,-0.0778,-0.0777,-0.0776,0,0,0,0,0,0,-0.0636,-0.0634,-0.0622,-0.0624,-0.0621,-0.0635,-0.0642,-0.0647,-0.0659,-0.0689,-0.0702,-0.0678,-0.0742,-0.0749,-0.0773,-0.0734,-0.0795,-0.0795,-0.078,-0.0778,-0.0777,-0.0662,0,0,0,0,0,0,-0.0637,-0.0635,-0.0652,-0.0624,-0.0621,-0.0586,-0.0638,-0.0644,-0.0642,-0.0651,-0.0699,-0.071,-0.0745,-0.0771,-0.0774,-0.0736,-0.0796,-0.0781,-0.0779,-0.0777,-0.0667,-0.0657,-0.0648,0,0,0,0,0,-0.0639,-0.0628,-0.0654,-0.0652,-0.064,-0.0583,-0.058,-0.0604,-0.0639,-0.063,-0.068,-0.071,-0.0761,-0.0771,-0.0775,-0.0736,-0.0782,-0.0779,-0.0777,-0.0672,-0.0659,-0.0649,0,0,0,0,0,0,-0.0635,-0.0634,-0.0663,-0.0653,-0.0626,-0.0596,-0.0582,-0.0597,-0.0623,-0.0647,-0.0695,-0.0708,-0.0716,-0.0742,-0.0752,-0.0729,-0.0775,-0.0774,-0.0694,-0.0683,-0.0673,-0.0629,-0.0797,0,0,0,0,0,-0.0643,-0.064,-0.0629,-0.0611,-0.0605,-0.0597,-0.0584,-0.0594,-0.06,-0.0615,-0.0642,-0.0679,-0.0699,-0.0708,-0.0731,-0.0708,-0.0747,-0.0688,-0.0678,-0.0669,-0.0637,-0.0698,-0.0691,-0.0768,-0.0768,-0.0769,0,0,-0.0628,-0.0626,-0.0624,-0.0611,-0.0597,-0.0561,-0.0599,-0.0565,-0.0543,-0.0619,-0.061,-0.0648,-0.069,-0.0678,-0.0681,-0.0699,-0.0665,-0.0667,-0.0659,-0.063,-0.0695,-0.0687,-0.068,-0.0767,-0.0767,-0.0767,0,0,-0.0562,-0.0602,-0.0575,-0.0558,-0.0535,-0.053,-0.0521,-0.05,-0.0511,-0.0491,-0.0554,-0.0566,-0.0582,-0.06,-0.0614,-0.056,-0.062,-0.0572,-0.0474,-0.0534,-0.0527,-0.0523,-0.0549,-0.0547,-0.0558,-0.0558,-0.0558,0,-0.0539,-0.053,-0.0548,-0.0511,-0.0496,-0.0514,-0.0473,-0.0463,-0.0453,-0.0453,-0.0481,-0.05,-0.0535,-0.0524,-0.0501,-0.0533,-0.0575,-0.0513,-0.052,-0.0516,-0.0513,-0.0542,-0.0542,-0.0552,-0.0553,-0.0553,-0.0554,0,-0.0458,-0.0458,-0.0427,-0.041,-0.0389,-0.0352,-0.0346,-0.0337,-0.0352,-0.0345,-0.0338,-0.0374,-0.0376,-0.0393,-0.0421,-0.0405,-0.0445,-0.051,-0.0546,-0.0498,-0.0532,-0.0533,-0.0544,-0.0546,-0.0548,-0.0549,0,0,-0.0385,-0.0378,-0.0369,-0.0375,-0.0348,-0.0322,-0.0282,-0.0256,-0.0242,-0.0229,-0.0208,-0.0205,-0.0213,-0.0227,-0.0268,-0.0304,-0.031,-0.0376,-0.0382,-0.0393,-0.0424,-0.0454,-0.046,-0.0392,-0.0392,-0.0392,-0.0451,0,-0.032,-0.0271,-0.0269,-0.0221,-0.0216,-0.0221,-0.0177,-0.016,-0.0159,-0.0144,-0.016,-0.0143,-0.0154,-0.0149,-0.0177,-0.0305,-0.0311,-0.0286,-0.0474,-0.0478,-0.0506,-0.0462,-0.0462,-0.0515,-0.0453,-0.0453,-0.0454,0,-0.0267,-0.0247,-0.0204,-0.0189,-0.0179,-0.0135,-0.0115,-0.0074,-0.0053,-0.0049,-0.0019,-0.0031,-0.0028,-0.007,-0.0177,-0.0169,-0.0246,-0.0341,-0.0348,-0.0412,-0.0512,-0.0557,-0.0521,-0.0458,-0.0457,-0.0457,-0.0457,0,-0.0279,-0.0218,-0.0199,-0.0189,-0.0149,-0.0119,-0.0082,-0.0046,0.0013,0.0023,0.0061,0.0041,0.0048,-0.0063,-0.0163,-0.0188,-0.0325,-0.0402,-0.0485,-0.0488,-0.0537,-0.0545,-0.0451,-0.0451,-0.0451,-0.0451,-0.0451,0,-0.0265,-0.0248,-0.0202,-0.0197,-0.0122,-0.011,-0.0021,0.0004,0.0072,0.0176,0.0133,0.0202,0.0047,-0.0019,-0.015,-0.0301,-0.0297,-0.0439,-0.0502,-0.0496,-0.0499,-0.0496,-0.05,-0.0453,-0.0453,-0.0452,-0.0452,0,-0.029,-0.0279,-0.0236,-0.0171,-0.0135,-0.0077,0.0072,0.0156,0.0176,0.0304,0.0337,0.0319,0.0206,0.0048,-0.0157,-0.0264,-0.0436,-0.0478,-0.0434,-0.049,-0.0563,-0.0561,-0.0603,-0.0605,-0.0606,-0.0607,-0.0608,0,-0.0295,-0.0288,-0.0193,-0.0104,-0.0056,0.0047,0.0161,0.0217,0.0335,0.0412,0.0498,0.042,0.0394,0.0063,-0.0189,-0.0446,-0.0443,-0.0561,-0.0601,-0.052,-0.0577,-0.0573,-0.0569,-0.0618,-0.0619,-0.062,-0.062,0,-0.0257,-0.0229,-0.0162,0.0009,0.0136,0.0282,0.0438,0.0533,0.0633,0.0702,0.0806,0.0759,0.0426,0.0122,-0.026,-0.0414,-0.054,-0.0585,-0.0529,-0.0578,-0.0539,-0.0594,-0.0589,-0.0627,-0.0626,-0.0626,-0.0625,-0.0625,-0.0169,-0.0089,0.0029,0.0194,0.0349,0.0549,0.0683,0.0841,0.0999,0.1147,0.1047,0.0919,0.0476,-0.0074,-0.0333,-0.0581,-0.0603,-0.0685,-0.0681,-0.0676,-0.0666,-0.0631,-0.0732,-0.0732,-0.0732,-0.0732,-0.0732,0,0.0007,0.0088,0.0241,0.046,0.0664,0.0684,0.0919,0.1063,0.1266,0.1252,0.1294,0.0824,0.0407,-0.0027,-0.0429,-0.0688,-0.0682,-0.0726,-0.0684,-0.0679,-0.0674,-0.066,-0.0727,-0.0727,-0.0727,-0.0726,0,0,0.0129,0.0305,0.037,0.0722,0.0865,0.1112,0.1236,0.1419,0.1432,0.1421,0.1257,0.1002,0.0357,0.0064,-0.031,-0.0498,-0.0501,-0.0516,-0.0507,-0.0413,-0.0403,-0.0657,-0.0632,0,0,0,0,0]}],[{"header":{"parameterUnit":"m.s-1","parameterCategory":2,"la1":30.2991,"la2":30.254,"lo1":-89.0895,"lo2":-89.0444,"dy":0.0017,"dx":0.0017,"nx":28,"ny":28,"refTime":"2023-06-19T21:00:00:Z","depth":"4","parameterNumber":2,"parameterNumberName":"U-component_of_CURRENTS"},"data":[0,0,0,0,0,0,0,0,0,0,0,0,0,0,0,0,0,0,0,0,0,0,0,0,0,0,0,0,0,0,0,0,0,0,0,0,0,0,0,0,0,0,0,0,0,0,0,0,0,0,0,0,0,0,0,0,0,0,0.0181,0.0181,0,0.0207,0.0208,0.0208,0.0242,0.0243,0.0243,0.0244,0.0212,0.021,0.0209,0,0,0,0,0,0,0,0,0,0,0,0,0,0.0118,0.012,0.0181,0.0181,0.0182,0.0207,0.0208,0.0208,0.0242,0.0243,0.0243,0.0244,0.0212,0.0211,0.0209,0,0,0,0,0,0,0,0,0,0,0,0,0,0.0146,0.012,0.0181,0.0201,0.0203,0.0207,0.0208,0.0208,0.0242,0.0243,0.0244,0.0244,0.0213,0.0211,0.0209,0.0181,0,0,0.0203,0.0202,0,0,0,0,0,0,0,0,0.0144,0.0148,0.0198,0.02,0.0202,0.0222,0.0174,0.0196,0.0242,0.0228,0.0244,0.0245,0.0209,0.0207,0.0212,0.0179,0.0178,0.0203,0.0201,0.02,0.02,0,0,0,0,0,0,0,0.0142,0.0147,0.0192,0.0198,0.0201,0.0195,0.02,0.0178,0.0213,0.0229,0.0232,0.0233,0.021,0.0214,0.0211,0.0178,0.0203,0.0201,0.02,0.0199,0.017,0.017,0,0,0,0,0,0,0.014,0.0145,0.0191,0.0193,0.0174,0.0195,0.0201,0.0215,0.0215,0.0216,0.0233,0.0235,0.0217,0.0214,0.021,0.0235,0.02,0.0199,0.0197,0.0169,0.017,0.017,0,0,0,0,0,0,0.0138,0.0144,0.019,0.0168,0.0174,0.0196,0.0211,0.0215,0.0222,0.0218,0.0218,0.0236,0.0217,0.0213,0.0207,0.0232,0.0198,0.0196,0.0169,0.017,0.017,0.0247,0,0,0,0,0,0,0.0137,0.0144,0.0155,0.0169,0.0175,0.0197,0.021,0.0215,0.0222,0.0225,0.022,0.0218,0.0218,0.021,0.0205,0.0228,0.0194,0.0168,0.0169,0.017,0.0244,0.025,0.0256,0,0,0,0,0,0.0135,0.0146,0.0156,0.0161,0.019,0.0197,0.0199,0.0217,0.0221,0.0226,0.023,0.0219,0.0212,0.0209,0.0203,0.0226,0.0168,0.0169,0.017,0.0241,0.0249,0.0256,0,0,0,0,0,0,0.0118,0.015,0.0162,0.0181,0.019,0.0202,0.0205,0.0213,0.022,0.022,0.0218,0.0217,0.0223,0.0204,0.0201,0.0219,0.0189,0.0189,0.0246,0.0253,0.0258,0.0284,0.0193,0,0,0,0,0,0.0121,0.0144,0.0161,0.0176,0.0177,0.0188,0.0193,0.0203,0.0209,0.0214,0.0219,0.0217,0.022,0.022,0.0214,0.0214,0.0214,0.0225,0.0231,0.0236,0.0252,0.0268,0.0277,0.0174,0.0174,0.0174,0,0,0.0118,0.0138,0.0151,0.0174,0.0179,0.019,0.0193,0.0197,0.0226,0.0205,0.0239,0.0231,0.0223,0.024,0.0241,0.0229,0.0267,0.0238,0.0243,0.0256,0.027,0.028,0.0289,0.0174,0.0174,0.0174,0,0,0.0115,0.0138,0.0152,0.0157,0.0168,0.0185,0.0185,0.0201,0.0229,0.0251,0.0251,0.0265,0.0261,0.0279,0.0282,0.0308,0.0294,0.0295,0.0352,0.0366,0.0376,0.0384,0.0407,0.0416,0.0302,0.0303,0.0303,0,0.0105,0.013,0.0152,0.0156,0.0167,0.0183,0.0191,0.0223,0.0243,0.0278,0.0271,0.0305,0.0292,0.0333,0.035,0.0327,0.0328,0.033,0.0377,0.0385,0.0392,0.0413,0.0423,0.0306,0.0306,0.0305,0.0305,0,0.0113,0.0124,0.0124,0.0153,0.0172,0.0173,0.0217,0.0253,0.0288,0.0326,0.0379,0.0377,0.0403,0.0399,0.0386,0.043,0.0414,0.0382,0.0366,0.0408,0.0427,0.0435,0.0312,0.031,0.0309,0.0308,0,0,0.01,0.0127,0.0123,0.0139,0.0167,0.0187,0.0246,0.0312,0.0371,0.0407,0.0483,0.05,0.0507,0.051,0.0494,0.0511,0.0562,0.0471,0.047,0.0507,0.0603,0.0611,0.0621,0.0535,0.0536,0.0537,0.06,0,0.0092,0.0104,0.0129,0.0155,0.0165,0.0211,0.0274,0.0344,0.0412,0.0492,0.0529,0.0579,0.0548,0.0561,0.0578,0.056,0.0587,0.0549,0.0546,0.0546,0.0559,0.0632,0.0543,0.0607,0.0609,0.061,0.0611,0,0.0087,0.0102,0.0116,0.0175,0.0186,0.0218,0.0333,0.0389,0.0508,0.0562,0.0628,0.0656,0.0705,0.0661,0.0689,0.0663,0.0646,0.0634,0.0635,0.0625,0.0572,0.0551,0.0626,0.0625,0.0624,0.0623,0.0622,0,0.0074,0.0097,0.0118,0.0126,0.0193,0.0238,0.0294,0.0411,0.0483,0.0607,0.0669,0.073,0.0769,0.0761,0.0749,0.0718,0.0775,0.0723,0.0725,0.0725,0.0661,0.0652,0.0752,0.0752,0.0752,0.0752,0.0752,0,0.0055,0.0068,0.0114,0.012,0.0185,0.0236,0.0329,0.0408,0.052,0.0612,0.0694,0.0761,0.0794,0.0833,0.0794,0.0804,0.0813,0.0765,0.0753,0.0692,0.0685,0.0668,0.0658,0.0754,0.0754,0.0753,0.0753,0,0.0026,0.0045,0.0075,0.0141,0.0173,0.0222,0.0336,0.0413,0.0515,0.0635,0.0676,0.0802,0.0873,0.0905,0.0915,0.0874,0.0865,0.0859,0.0825,0.0803,0.0794,0.0786,0.0881,0.0882,0.0883,0.0884,0.0885,0,0.0011,0.0016,0.0083,0.0121,0.015,0.0228,0.0297,0.0403,0.0482,0.0646,0.0701,0.0832,0.0908,0.0942,0.096,0.0958,0.0927,0.0916,0.0839,0.0835,0.0813,0.0803,0.0795,0.0886,0.0886,0.0887,0.0887,0,-0.0015,0.0005,0.0036,0.0109,0.0174,0.0255,0.035,0.0394,0.0526,0.0615,0.0726,0.0797,0.0906,0.0945,0.0982,0.0949,0.092,0.0925,0.0921,0.0848,0.0842,0.0816,0.0807,0.089,0.089,0.0889,0.0889,0,-0.0029,-0.0007,0.004,0.011,0.0191,0.0274,0.0318,0.0414,0.0493,0.0652,0.0675,0.0806,0.0894,0.0943,0.0946,0.0968,0.0941,0.0869,0.0868,0.0865,0.0834,0.0821,0.0881,0,0,0,0,0,-0.0038,-0.0001,0.0052,0.0136,0.0211,0.0264,0.0366,0.0409,0.0509,0.0575,0.0627,0.0721,0.0812,0.0863,0.0886,0.0951,0.0942,0.0972,0.0856,0.0908,0.0904,0.0871,0,0,0,0,0,0,-0.0035,0.0007,0.0044,0.0142,0.0201,0.0294,0.0352,0.0416,0.0453,0.0546,0.0598,0.0672,0.0767,0.0796,0.0869,0.0888,0.0799,0.104,0.1038,0.091,0.0906,0.0903,0.0868,0,0,0,0,0]},{"header":{"parameterUnit":"m.s-1","parameterCategory":2,"la1":30.2991,"la2":30.254,"lo1":-89.0895,"lo2":-89.0444,"dy":0.0017,"dx":0.0017,"nx":28,"ny":28,"refTime":"2023-06-19T21:00:00:Z","depth":"4","parameterNumber":3,"parameterNumberName":"V-component_of_CURRENTS"},"data":[0,0,0,0,0,0,0,0,0,0,0,0,0,0,0,0,0,0,0,0,0,0,0,0,0,0,0,0,0,0,0,0,0,0,0,0,0,0,0,0,0,0,0,0,0,0,0,0,0,0,0,0,0,0,0,0,0,0,0.0313,0.0313,0,0.029,0.029,0.029,0.0307,0.0307,0.0308,0.0308,0.0209,0.0206,0.0203,0,0,0,0,0,0,0,0,0,0,0,0,0,0.0359,0.0358,0.0313,0.0313,0.0312,0.029,0.029,0.029,0.0307,0.0307,0.0308,0.0309,0.0211,0.0207,0.0203,0,0,0,0,0,0,0,0,0,0,0,0,0,0.0339,0.0358,0.0313,0.0317,0.0316,0.029,0.029,0.029,0.0307,0.0307,0.0308,0.0309,0.0212,0.0207,0.0202,0.0156,0,0,0.0188,0.0186,0,0,0,0,0,0,0,0,0.034,0.0338,0.0317,0.0316,0.0316,0.0301,0.027,0.0241,0.0306,0.0312,0.0309,0.0309,0.0231,0.0225,0.0222,0.0151,0.0147,0.0188,0.0185,0.0183,0.0181,0,0,0,0,0,0,0,0.0342,0.0339,0.0306,0.0316,0.0316,0.0315,0.0313,0.0265,0.0267,0.0312,0.0313,0.0307,0.0231,0.0227,0.022,0.0146,0.0188,0.0183,0.0181,0.0179,-0.0129,-0.0134,0,0,0,0,0,0,0.034,0.034,0.0307,0.0305,0.0328,0.0313,0.0311,0.0306,0.0269,0.0265,0.0306,0.0308,0.0235,0.0225,0.0216,0.0089,0.0183,0.0178,0.0175,-0.0124,-0.013,-0.0136,0,0,0,0,0,0,0.0341,0.0338,0.0308,0.0321,0.0317,0.0311,0.0305,0.0305,0.0304,0.0265,0.026,0.0305,0.0235,0.0223,0.0147,0.0088,0.0176,0.0172,-0.0117,-0.0126,-0.0133,-0.0122,0,0,0,0,0,0,0.0343,0.0338,0.0333,0.032,0.0316,0.0296,0.0304,0.0304,0.0298,0.03,0.0262,0.0254,0.0235,0.0154,0.0142,0.0083,0.0168,-0.0111,-0.0121,-0.013,-0.0116,-0.0129,-0.014,0,0,0,0,0,0.0345,0.0327,0.0332,0.0328,0.0309,0.0296,0.0293,0.0294,0.0297,0.0296,0.0246,0.0255,0.008,0.0148,0.0135,0.0072,-0.0106,-0.0118,-0.013,-0.011,-0.0126,-0.0139,0,0,0,0,0,0,0.0338,0.0326,0.0332,0.0312,0.0309,0.0298,0.0291,0.0291,0.0255,0.0249,0.0217,0.0204,0.0107,0.007,0.0145,-0.0061,-0.0025,-0.0039,-0.0006,-0.0021,-0.0033,-0.0018,0.0164,0,0,0,0,0,0.0335,0.0324,0.0317,0.0302,0.0301,0.0297,0.029,0.0291,0.0259,0.0248,0.0205,0.0128,0.0044,0.0004,-0.0067,-0.0158,-0.0152,-0.0227,-0.0238,-0.0247,-0.0255,-0.0275,-0.0286,-0.0175,-0.0175,-0.0175,0,0,0.0326,0.032,0.0312,0.0301,0.0299,0.028,0.0296,0.0285,0.0248,0.0236,0.0157,0.0099,0.0008,-0.0098,-0.0149,-0.013,-0.0284,-0.0263,-0.0268,-0.0271,-0.0288,-0.0298,-0.0306,-0.0183,-0.0182,-0.018,0,0,0.0307,0.0301,0.0292,0.0288,0.0283,0.0269,0.0266,0.0244,0.0217,0.0138,0.0097,0.0013,-0.0111,-0.0181,-0.0236,-0.0366,-0.034,-0.0419,-0.0461,-0.048,-0.0487,-0.0492,-0.0496,-0.0502,-0.0429,-0.0429,-0.0429,0,0.0295,0.0294,0.0287,0.0279,0.0267,0.0261,0.0245,0.0204,0.015,0.0103,0.0104,-0.0099,-0.0153,-0.0292,-0.0352,-0.0384,-0.0386,-0.0375,-0.0484,-0.049,-0.0496,-0.0498,-0.0505,-0.043,-0.043,-0.043,-0.043,0,0.0277,0.0278,0.0271,0.0254,0.0229,0.0223,0.017,0.012,0.0075,0.0028,-0.0106,-0.0185,-0.0306,-0.0357,-0.0393,-0.0503,-0.0487,-0.0476,-0.0414,-0.0504,-0.0504,-0.0511,-0.0432,-0.0431,-0.0431,-0.0431,0,0,0.0249,0.0261,0.0258,0.0275,0.0226,0.0217,0.0114,0.0039,-0.0019,-0.0109,-0.0195,-0.0358,-0.0391,-0.0462,-0.0517,-0.0547,-0.0587,-0.0539,-0.0539,-0.0485,-0.0618,-0.059,-0.0594,-0.0577,-0.0578,-0.058,-0.0597,0,0.0248,0.0263,0.0234,0.0225,0.0238,0.0174,0.0082,-0.0003,-0.0088,-0.0181,-0.0287,-0.0392,-0.0438,-0.0491,-0.0538,-0.0571,-0.0607,-0.0583,-0.0593,-0.0593,-0.0508,-0.0602,-0.0585,-0.0602,-0.0603,-0.0604,-0.0605,0,0.0248,0.0265,0.0272,0.0254,0.0243,0.0198,0.0081,-0.0002,-0.0161,-0.0232,-0.0359,-0.0428,-0.0545,-0.054,-0.0636,-0.0615,-0.0638,-0.0644,-0.0644,-0.0624,-0.0578,-0.0506,-0.0616,-0.0615,-0.0615,-0.0614,-0.0613,0,0.0286,0.0291,0.031,0.0307,0.0258,0.0206,0.0134,-0.0023,-0.01,-0.0265,-0.0317,-0.0464,-0.0523,-0.0581,-0.0636,-0.0637,-0.0684,-0.0678,-0.0677,-0.0673,-0.0684,-0.0678,-0.0738,-0.0738,-0.0738,-0.0738,-0.0738,0,0.0314,0.0332,0.0341,0.0354,0.0328,0.0252,0.0163,0.0056,-0.0092,-0.0171,-0.0333,-0.0389,-0.0531,-0.0584,-0.0631,-0.0673,-0.0688,-0.0702,-0.0687,-0.0686,-0.0681,-0.0687,-0.0681,-0.0739,-0.0739,-0.0739,-0.0739,0,0.0346,0.0368,0.0395,0.0367,0.0358,0.0319,0.0199,0.0121,-0.0016,-0.0118,-0.0169,-0.0335,-0.0419,-0.0531,-0.0609,-0.0653,-0.0692,-0.07,-0.0686,-0.0666,-0.0671,-0.0666,-0.0717,-0.0717,-0.0716,-0.0716,-0.0715,0,0.0364,0.0393,0.0412,0.041,0.0393,0.034,0.0277,0.0151,0.0079,-0.006,-0.0092,-0.0219,-0.0327,-0.0423,-0.0537,-0.0649,-0.0662,-0.0689,-0.0715,-0.0695,-0.0675,-0.067,-0.0665,-0.0714,-0.0714,-0.0714,-0.0714,0,0.0373,0.0384,0.039,0.0396,0.0373,0.035,0.0274,0.0246,0.0106,0.0045,-0.0043,-0.0158,-0.0256,-0.0389,-0.0496,-0.0562,-0.0679,-0.0685,-0.0687,-0.0712,-0.0692,-0.0671,-0.0667,-0.0712,-0.0713,-0.0713,-0.0713,0,0.0347,0.0347,0.035,0.0344,0.0337,0.0313,0.0295,0.0227,0.0161,0.0041,0.0051,-0.0101,-0.0185,-0.0339,-0.0406,-0.0511,-0.0544,-0.0569,-0.0578,-0.0581,-0.0547,-0.0502,-0.0467,0,0,0,0,0,0.0308,0.0289,0.0284,0.0273,0.0272,0.0273,0.0256,0.0235,0.0193,0.0141,0.0079,-0.0011,-0.0185,-0.0256,-0.0358,-0.0408,-0.0568,-0.0529,-0.0603,-0.0703,-0.0705,-0.0687,0,0,0,0,0,0,0.0269,0.0259,0.026,0.0211,0.0203,0.0189,0.019,0.0177,0.0149,0.0115,0.0031,-0.0016,-0.0179,-0.0128,-0.0354,-0.0387,-0.0442,-0.0609,-0.061,-0.0702,-0.0704,-0.0705,-0.0688,0,0,0,0,0]}]]